This is the latest recevied weather packets stored in our database for station/object IZ8FMH-11. If no packets are shown the sender has not sent any weather packets the latest 10 day(s).
| Time | Temp. | Humidity | Pressure | Rain* | Wind** | Luminosity | Snow |
|---|---|---|---|---|---|---|---|
| 1788437103 | 30° C | 61% | 1013.2 hPa | - | - | - | - |
| 1788435303 | 30° C | 61% | 1013.3 hPa | - | - | - | - |
| 1788433503 | 30° C | 61% | 1013.4 hPa | - | - | - | - |
| 1788431703 | 29.44° C | 62% | 1013.7 hPa | - | - | - | - |
| 1788429903 | 29.44° C | 62% | 1014.1 hPa | - | - | - | - |
| 1788428103 | 29.44° C | 63% | 1014.2 hPa | - | - | - | - |
| 1788426303 | 28.89° C | 62% | 1014.4 hPa | - | - | - | - |
| 1788424503 | 28.89° C | 62% | 1014.3 hPa | - | - | - | - |
| 1788422703 | 27.78° C | 62% | 1014 hPa | - | - | - | - |
| 1788420903 | 27.78° C | 61% | 1013.8 hPa | - | - | - | - |
| 1788419103 | 27.22° C | 60% | 1014 hPa | - | - | - | - |
| 1788417302 | 26.67° C | 61% | 1013.9 hPa | - | - | - | - |
| 1788415502 | 26.67° C | 62% | 1014 hPa | - | - | - | - |
| 1788413702 | 26.11° C | 61% | 1013.7 hPa | - | - | - | - |
| 1788411902 | 26.11° C | 58% | 1013.6 hPa | - | - | - | - |
| 1788410102 | 26.11° C | 59% | 1013.7 hPa | - | - | - | - |
| 1788408302 | 26.11° C | 57% | 1013.6 hPa | - | - | - | - |
| 1788406502 | 26.67° C | 55% | 1013.4 hPa | - | - | - | - |
| 1788404702 | 26.67° C | 55% | 1013.7 hPa | - | - | - | - |
| 1788402902 | 26.67° C | 53% | 1013.8 hPa | - | - | - | - |
| 1788401102 | 26.67° C | 55% | 1013.9 hPa | - | - | - | - |
| 1788399302 | 26.67° C | 55% | 1014.1 hPa | - | - | - | - |
| 1788397502 | 27.22° C | 53% | 1014.2 hPa | - | - | - | - |
| 1788395702 | 27.22° C | 51% | 1014.3 hPa | - | - | - | - |
| 1788393903 | 27.22° C | 50% | 1014.5 hPa | - | - | - | - |
* Rain since midnight (hover to see other rain measurements)
** Current wind speed in m/s (hover to see current wind gust speed)